Location: Forli
(44.2227°N, 12.0407°E)
Time: 23:54:09
(UTC+02:00)

PCSat - Pass Details

Date: 19 April 2026
Orbit: 781 x 790 km, 67.1° (Epoch: 19 May)

Event Time Altitude Azimuth Distance (km) Brightness Sun altitude
Rises 00:49:00 0° 323° (NW) 3,293 13.5 -34.5°
Reaches altitude 10° 00:51:31 10° 317° (NW) 2,360 12.6 -34.5°
Enters shadow 00:53:50 24° 304° (WNW) 1,576 11.4 -34.5°
